User: anonymous   Login
Location: Birkenwerder
(52.6919°N, 13.2774°E)
Time: 20:05:18
(UTC+00:00)
Language:

CZ-4 R/B - Orbit

View from above orbital plane
View from above orbital plane
View from above satellite
View from above satellite

Ground track
Ground track

The orbit data is extracted from the following two-line orbital elements,

1 28059U 03049C   21126.85841904 -.00000010  00000-0  93402-5 0  9996
2 28059  98.4941  53.1200 0049092 229.1127 130.5810 14.52648810929782
Epoch (UTC): 06 May 2021 20:36:07
Eccentricity: 0.0049092
inclination: 98.4941°
perigee height: 682 km
apogee height: 752 km
right ascension of ascending node: 53.1200°
argument of perigee: 229.1127°
revolutions per day: 14.52648810
mean anomaly at epoch: 130.5810°
orbit number at epoch: 92978

The dashed part of the orbit path shows where the satellite is in the earth's shadow,  

DLR